When you browse on this site, cookies collect data to enhance your experience and personalize the content and advertising you see.
Visit our Privacy Policy to learn more. By continuing to use the site, you agree to this use of cookies and data.

Hourly Weather Lewis

Today, 3 July, Friday

Time Temperature Precipitation Wind Pressure Humidity
00:00 +8°C° 0 mm 3 mps 746 mmHg 78%
01:00 +7°C° 0 mm 4 mps 746 mmHg 82%
02:00 +7°C° 0 mm 4 mps 745 mmHg 85%
03:00 +7°C° 0 mm 5 mps 744 mmHg 89%
04:00 +7°C° 0.2 mm 5 mps 743 mmHg 90%
05:00 +7°C° 0.2 mm 5 mps 743 mmHg 91%
06:00 +7°C° 0.2 mm 5 mps 742 mmHg 91%
07:00 +7°C° 0.6 mm 6 mps 742 mmHg 92%
08:00 +7°C° 0.6 mm 6 mps 741 mmHg 93%
09:00 +7°C° 0.6 mm 6 mps 741 mmHg 93%
10:00 +8°C° 0.5 mm 6 mps 741 mmHg 93%
11:00 +8°C° 0.5 mm 5 mps 741 mmHg 93%
12:00 +8°C° 0.5 mm 5 mps 741 mmHg 93%
13:00 +10°C° 0.1 mm 5 mps 741 mmHg 90%
14:00 +12°C° 0.1 mm 5 mps 741 mmHg 87%
15:00 +13°C° 0.1 mm 5 mps 741 mmHg 83%
16:00 +13°C° 0.1 mm 6 mps 741 mmHg 85%
17:00 +11°C° 0.1 mm 6 mps 741 mmHg 87%
18:00 +11°C° 0.1 mm 7 mps 741 mmHg 89%
19:00 +11°C° 0.1 mm 7 mps 741 mmHg 90%
20:00 +10°C° 0.1 mm 7 mps 741 mmHg 92%
21:00 +10°C° 0.1 mm 7 mps 741 mmHg 93%
22:00 +10°C° 0.1 mm 7 mps 742 mmHg 93%
23:00 +10°C° 0.1 mm 6 mps 742 mmHg 94%

Tomorrow, 4 July, Saturday

Time Temperature Precipitation Wind Pressure Humidity
00:00 +10°C° 0.1 mm 6 mps 742 mmHg 94%
01:00 +10°C° 0 mm 6 mps 741 mmHg 93%
02:00 +9°C° 0 mm 6 mps 741 mmHg 92%
03:00 +9°C° 0 mm 5 mps 741 mmHg 91%
04:00 +9°C° 0.1 mm 6 mps 741 mmHg 91%
05:00 +9°C° 0.1 mm 6 mps 741 mmHg 91%
06:00 +9°C° 0.1 mm 6 mps 740 mmHg 90%
07:00 +9°C° 0.4 mm 6 mps 740 mmHg 90%
08:00 +9°C° 0.4 mm 5 mps 740 mmHg 89%
09:00 +9°C° 0.4 mm 5 mps 740 mmHg 88%
10:00 +9°C° 0.1 mm 5 mps 740 mmHg 87%
11:00 +9°C° 0.1 mm 5 mps 740 mmHg 86%
12:00 +10°C° 0.1 mm 5 mps 740 mmHg 85%
13:00 +10°C° 0.1 mm 5 mps 740 mmHg 81%
14:00 +11°C° 0.1 mm 6 mps 740 mmHg 77%
15:00 +12°C° 0.1 mm 7 mps 740 mmHg 73%
16:00 +11°C° 0.1 mm 6 mps 740 mmHg 75%
17:00 +11°C° 0.1 mm 6 mps 740 mmHg 77%
18:00 +11°C° 0.1 mm 6 mps 740 mmHg 79%
19:00 +10°C° 0 mm 5 mps 740 mmHg 83%
20:00 +10°C° 0 mm 4 mps 740 mmHg 88%
21:00 +9°C° 0 mm 3 mps 740 mmHg 92%
22:00 +8°C° 0.2 mm 4 mps 739 mmHg 92%
23:00 +8°C° 0.2 mm 4 mps 739 mmHg 91%

Day after tomorrow, 5 July, Sunday

Time Temperature Precipitation Wind Pressure Humidity
00:00 +8°C° 0.2 mm 4 mps 739 mmHg 91%
01:00 +8°C° 0.2 mm 4 mps 738 mmHg 92%
02:00 +9°C° 0.2 mm 3 mps 737 mmHg 92%
03:00 +9°C° 0.2 mm 3 mps 736 mmHg 92%
04:00 +9°C° 0.2 mm 3 mps 736 mmHg 92%
05:00 +9°C° 0.2 mm 3 mps 736 mmHg 91%
06:00 +9°C° 0.2 mm 3 mps 735 mmHg 91%
07:00 +10°C° 0.2 mm 4 mps 736 mmHg 88%
08:00 +10°C° 0.2 mm 4 mps 736 mmHg 86%
09:00 +10°C° 0.2 mm 5 mps 736 mmHg 83%
10:00 +10°C° 0.2 mm 6 mps 737 mmHg 81%
11:00 +11°C° 0.2 mm 6 mps 737 mmHg 78%
12:00 +11°C° 0.2 mm 7 mps 737 mmHg 75%
13:00 +11°C° 0.2 mm 6 mps 737 mmHg 74%
14:00 +11°C° 0.2 mm 6 mps 737 mmHg 72%
15:00 +11°C° 0.2 mm 6 mps 737 mmHg 71%
16:00 +11°C° 0.1 mm 6 mps 738 mmHg 72%
17:00 +11°C° 0.1 mm 6 mps 738 mmHg 72%
18:00 +10°C° 0.1 mm 7 mps 738 mmHg 73%
19:00 +10°C° 0.3 mm 7 mps 739 mmHg 79%
20:00 +10°C° 0.3 mm 7 mps 740 mmHg 84%
21:00 +9°C° 0.3 mm 8 mps 741 mmHg 90%
22:00 +9°C° 0.1 mm 8 mps 742 mmHg 88%
23:00 +8°C° 0.1 mm 9 mps 743 mmHg 85%

6 July, Monday

Time Temperature Precipitation Wind Pressure Humidity
00:00 +7°C° 0.1 mm 10 mps 744 mmHg 82%
01:00 +7°C° 0.1 mm 9 mps 745 mmHg 82%
02:00 +7°C° 0.1 mm 9 mps 747 mmHg 83%
03:00 +6°C° 0.1 mm 8 mps 748 mmHg 83%
04:00 +6°C° 0.1 mm 8 mps 749 mmHg 82%
05:00 +8°C° 0.1 mm 7 mps 749 mmHg 80%
06:00 +8°C° 0.1 mm 6 mps 750 mmHg 79%
07:00 +8°C° 0.1 mm 6 mps 751 mmHg 78%
08:00 +9°C° 0.1 mm 6 mps 752 mmHg 77%
09:00 +9°C° 0.1 mm 6 mps 752 mmHg 77%
10:00 +10°C° 0.1 mm 7 mps 753 mmHg 73%
11:00 +10°C° 0.1 mm 7 mps 753 mmHg 69%
12:00 +11°C° 0.1 mm 8 mps 753 mmHg 65%
13:00 +11°C° 0 mm 7 mps 754 mmHg 66%
14:00 +11°C° 0 mm 7 mps 754 mmHg 67%
15:00 +12°C° 0 mm 7 mps 754 mmHg 67%
16:00 +11°C° 0.1 mm 7 mps 754 mmHg 71%
17:00 +11°C° 0.1 mm 8 mps 754 mmHg 74%
18:00 +11°C° 0.1 mm 8 mps 754 mmHg 77%
19:00 +10°C° 0.1 mm 8 mps 754 mmHg 79%
20:00 +10°C° 0.1 mm 7 mps 754 mmHg 80%
21:00 +9°C° 0.1 mm 7 mps 754 mmHg 82%
22:00 +9°C° 0.1 mm 7 mps 754 mmHg 83%
23:00 +9°C° 0.1 mm 7 mps 755 mmHg 83%

7 July, Tuesday

Time Temperature Precipitation Wind Pressure Humidity
00:00 +9°C° 0.1 mm 6 mps 755 mmHg 84%
01:00 +9°C° 0 mm 6 mps 755 mmHg 85%
02:00 +8°C° 0 mm 6 mps 755 mmHg 86%
03:00 +8°C° 0 mm 6 mps 755 mmHg 87%
04:00 +9°C° 0 mm 5 mps 755 mmHg 85%
05:00 +9°C° 0 mm 5 mps 755 mmHg 83%
06:00 +11°C° 0 mm 4 mps 755 mmHg 82%
07:00 +11°C° 0.1 mm 4 mps 755 mmHg 81%
08:00 +11°C° 0.1 mm 4 mps 755 mmHg 81%
09:00 +11°C° 0.1 mm 3 mps 756 mmHg 80%
10:00 +12°C° 0.1 mm 3 mps 756 mmHg 79%
11:00 +12°C° 0.1 mm 4 mps 755 mmHg 77%
12:00 +13°C° 0.1 mm 4 mps 755 mmHg 76%
13:00 +12°C° 0.1 mm 5 mps 755 mmHg 75%
14:00 +12°C° 0.1 mm 5 mps 755 mmHg 75%
15:00 +11°C° 0.1 mm 6 mps 755 mmHg 75%
16:00 +10°C° 0.9 mm 7 mps 754 mmHg 81%
17:00 +10°C° 0.9 mm 7 mps 753 mmHg 88%
18:00 +9°C° 0.9 mm 8 mps 752 mmHg 94%
19:00 +8°C° 0.9 mm 9 mps 751 mmHg 94%
20:00 +8°C° 0.9 mm 10 mps 751 mmHg 94%
21:00 +9°C° 0.9 mm 11 mps 750 mmHg 93%
22:00 +9°C° 0.7 mm 11 mps 749 mmHg 94%
23:00 +9°C° 0.7 mm 11 mps 749 mmHg 95%

8 July, Wednesday

Time Temperature Precipitation Wind Pressure Humidity
00:00 +11°C° 0.7 mm 10 mps 748 mmHg 95%
01:00 +9°C° 0.3 mm 10 mps 747 mmHg 93%
02:00 +9°C° 0.3 mm 10 mps 747 mmHg 91%
03:00 +10°C° 0.3 mm 9 mps 747 mmHg 88%
04:00 +9°C° 0.1 mm 10 mps 746 mmHg 87%
05:00 +9°C° 0.1 mm 10 mps 746 mmHg 86%
06:00 +9°C° 0.1 mm 11 mps 746 mmHg 84%
07:00 +9°C° 0.1 mm 11 mps 746 mmHg 83%
08:00 +9°C° 0.1 mm 12 mps 745 mmHg 82%
09:00 +9°C° 0.1 mm 12 mps 745 mmHg 80%
10:00 +10°C° 0.1 mm 13 mps 745 mmHg 79%
11:00 +10°C° 0.1 mm 13 mps 745 mmHg 78%
12:00 +10°C° 0.1 mm 14 mps 745 mmHg 77%
13:00 +10°C° 0.1 mm 14 mps 744 mmHg 77%
14:00 +10°C° 0.1 mm 14 mps 744 mmHg 77%
15:00 +10°C° 0.1 mm 14 mps 743 mmHg 77%
16:00 +10°C° 0.2 mm 14 mps 743 mmHg 80%
17:00 +10°C° 0.2 mm 13 mps 742 mmHg 83%
18:00 +10°C° 0.2 mm 12 mps 742 mmHg 86%
19:00 +10°C° 0.2 mm 12 mps 742 mmHg 87%
20:00 +9°C° 0.2 mm 11 mps 742 mmHg 88%
21:00 +9°C° 0.2 mm 11 mps 742 mmHg 90%
22:00 +9°C° 0.1 mm 11 mps 742 mmHg 89%
23:00 +9°C° 0.1 mm 11 mps 742 mmHg 89%
Show more